Airfield :
LOGIN :

Register | Disclaimer

   EN    FR    IT 

 










Legend :    VFR   Marginal VFR   IFR   Intensive IFR   Very Intensive IFR
Visi :
Ceiling :
>= 8 km
>= 3000ft
5 to 8 km
1000 to 3000 ft
1500m to 5 km
500 to 1000 ft
800 to 1500m
200 to 500 ft
< 800m
< 200 ft
Symbols :   Thunderstorms  Fog  Heavy snow  Heavy precipitations  Wind > 20 kt
SIGMETs :     Misc.  Thunderstorms  Icing  Turbulence  Mountain Waves  Volcanic Ashes







- Airport Elevation : 256 ft
- IATA code : CFR
- Download approach charts


LFRK - Caen

CURRENT METAR :
  • 170330Z AUTO 24010KT 9999 FEW018 SCT042 BKN048 07/06 Q1016

EXPIRED METARs :
  • 170300Z AUTO 23011KT 9999 FEW043 07/05 Q1015
  • 170230Z AUTO 24011KT 9999 FEW022/// SCT041/// ///TCU 07/05 Q1015
  • 170200Z AUTO 24013KT 9999 ///TCU 07/05 Q1015
  • 170130Z AUTO 24010KT CAVOK 06/05 Q1014
  • 170100Z AUTO 23012KT 9999 SCT033 SCT045 07/06 Q1014

Expired Forecast.
Met : +33 2 31 26 68 11
No reported NOTAMs for that airfield.



MET'MAP, your aeronautical weather chart ! - Copyright ORBIFLY December 2007 - Disclaimer

ORBIFLY MET'MAP TEAM :

Programming & Development : Alexandra Zaïnal
Concept & Development : Baudouin d'Aumeries
Co-Development & Prog : Marc-Olivier Méhu
Technical & hardware support : Manuel Goepfert

Contact : metmap@orbifly.com




SOURCES & CREDITS :

   NOAA